Date String (YYYY-MM-DD hh:mm:ss) UTC,Instrument flags,Ambient pressure (hPa),Sample flow (lpm),Bypass flow (lpm),Sample temperature (°C),Ambient temperature (°C),ASC tube jacket temperature (°C),LED temperature (°C),Box temperature (°C),Sample RH (%),Span deviation,Mass concentration (μg/m³),Mass concentration (μg/m³),Mass concentration (μg/m³)
DateTimeUTC,F1_M11,P_M11,Q1_M11,Q2_M11,T1_M11,T2_M11,T3_M11,T4_M11,T5_M11,U1_M11,ZSPAN_M11,X0_M11,X2_M11,X1_M11
2022-12-10 08:00:00,,0824.3,5.01,0.00,21.8,20.5,00.0,30.6,23.6,07.5,0000.0,0002.53,0000.90,0000.73
2022-12-10 08:01:00,,0824.2,5.02,0.00,21.8,20.6,00.0,30.6,23.7,07.5,0000.0,0002.47,0000.87,0000.71
2022-12-10 08:02:00,,0824.3,4.99,0.00,21.8,21.1,00.0,30.6,23.8,07.5,0000.0,0002.29,0000.86,0000.69
2022-12-10 08:03:00,,0824.3,4.99,0.00,21.9,22.0,00.0,30.6,24.0,07.3,0000.0,0001.34,0000.86,0000.68
2022-12-10 08:04:00,,0824.3,4.99,0.00,22.0,22.2,00.0,30.7,24.1,07.3,0000.0,0001.39,0000.87,0000.68
2022-12-10 08:05:00,,0824.2,4.99,0.00,22.1,21.8,00.0,30.7,24.1,07.3,0000.0,0001.47,0000.90,0000.68
2022-12-10 08:06:00,,0824.2,5.01,0.00,22.1,21.5,00.0,30.7,24.0,07.3,0000.0,0001.56,0000.92,0000.68
2022-12-10 08:07:00,,0824.1,5.02,0.00,22.1,21.3,00.0,30.8,24.0,07.3,0000.0,0001.68,0000.98,0000.68
2022-12-10 08:08:00,,0824.1,4.99,0.00,22.1,21.2,00.0,30.8,24.0,07.3,0000.0,0001.69,0000.98,0000.67
2022-12-10 08:09:00,,0824.1,4.99,0.00,22.1,21.1,00.0,30.8,24.0,07.3,0000.0,0001.69,0000.99,0000.67
2022-12-10 08:10:00,,0824.1,4.99,0.00,22.1,21.1,00.0,30.8,24.0,07.2,0000.0,0001.66,0000.97,0000.66
2022-12-10 08:11:00,,0824.1,5.02,0.00,22.1,21.0,00.0,30.8,24.0,07.2,0000.0,0002.10,0000.95,0000.66
2022-12-10 08:12:00,,0824.3,5.01,0.00,22.1,20.9,00.0,30.8,23.9,07.2,0000.0,0002.41,0000.98,0000.67
2022-12-10 08:13:00,,0824.2,4.98,0.00,22.1,20.8,00.0,30.8,23.9,07.3,0000.0,0002.48,0001.01,0000.67
2022-12-10 08:14:00,,0824.3,4.99,0.00,22.1,20.8,00.0,30.8,23.9,07.4,0000.0,0002.51,0001.02,0000.67
2022-12-10 08:15:00,,0824.4,5.02,0.00,22.1,20.8,00.0,30.8,23.9,07.4,0000.0,0002.57,0001.03,0000.67
2022-12-10 08:16:00,,0824.3,5.01,0.00,22.0,20.6,00.0,30.8,23.9,07.4,0000.0,0002.55,0001.03,0000.67
2022-12-10 08:17:00,,0824.5,4.99,0.00,22.0,20.5,00.0,30.8,23.8,07.4,0000.0,0002.46,0001.01,0000.67
2022-12-10 08:18:00,,0824.4,4.99,0.00,22.0,20.5,00.0,30.8,23.8,07.4,0000.0,0002.31,0000.94,0000.67
2022-12-10 08:19:00,,0824.2,5.02,0.00,22.0,20.5,00.0,30.8,23.8,07.3,0000.0,0002.34,0000.96,0000.67
2022-12-10 08:20:00,,0824.2,5.01,0.00,22.0,20.6,00.0,30.8,23.8,07.2,0000.0,0002.30,0000.94,0000.67
2022-12-10 08:21:00,,0824.3,4.98,0.00,22.0,20.6,00.0,30.8,23.8,07.2,0000.0,0002.33,0000.96,0000.67
2022-12-10 08:22:00,,0824.3,4.99,0.00,22.0,20.6,00.0,30.8,23.8,07.2,0000.0,0001.84,0000.97,0000.67
2022-12-10 08:23:00,,0824.3,5.02,0.00,22.0,20.6,00.0,30.8,23.8,07.0,0000.0,0003.09,0000.94,0000.66
2022-12-10 08:24:00,,0824.4,5.01,0.00,21.9,20.6,00.0,30.8,23.8,07.1,0000.0,0003.02,0000.91,0000.67
2022-12-10 08:25:00,,0824.4,4.99,0.00,21.9,20.5,00.0,30.8,23.8,07.2,0000.0,0003.05,0000.93,0000.67
2022-12-10 08:26:00,,0824.4,4.99,0.00,21.9,20.5,00.0,30.8,23.7,07.3,0000.0,0002.95,0000.92,0000.68
2022-12-10 08:27:00,,0824.4,5.02,0.00,21.9,20.6,00.0,30.8,23.8,07.4,0000.0,0002.92,0000.91,0000.68
2022-12-10 08:28:00,,0824.4,5.01,0.00,21.9,20.6,00.0,30.8,23.8,07.4,0000.0,0002.94,0000.92,0000.69
2022-12-10 08:29:00,,0824.4,4.99,0.00,21.9,20.6,00.0,30.8,23.8,07.5,0000.0,0003.06,0000.95,0000.69
2022-12-10 08:30:00,,0824.5,4.99,0.00,21.9,20.6,00.0,30.8,23.8,07.6,0000.0,0003.11,0000.97,0000.70
2022-12-10 08:31:00,,0824.6,4.99,0.00,21.9,20.6,00.0,30.8,23.8,07.6,0000.0,0003.13,0000.98,0000.72
2022-12-10 08:32:00,,0824.7,5.01,0.00,21.9,20.8,00.0,30.8,23.8,07.7,0000.0,0003.11,0000.98,0000.73
2022-12-10 08:33:00,,0824.6,5.01,0.00,22.0,21.7,00.0,30.8,24.0,07.6,0000.0,0004.12,0000.98,0000.73
2022-12-10 08:34:00,,0824.5,5.00,0.00,22.1,22.4,00.0,30.8,24.2,07.4,0000.0,0003.45,0000.99,0000.74
2022-12-10 08:35:00,,0824.8,4.98,0.00,22.2,22.2,00.0,30.8,24.2,07.4,0000.0,0003.62,0001.01,0000.75
2022-12-10 08:36:00,,0824.7,4.99,0.00,22.2,21.9,00.0,30.9,24.2,07.3,0000.0,0004.13,0000.97,0000.75
2022-12-10 08:37:00,,0824.6,4.99,0.00,22.2,21.6,00.0,30.9,24.1,06.9,0000.0,0004.11,0000.97,0000.74
2022-12-10 08:38:00,,0824.7,5.01,0.00,22.2,21.4,00.0,30.9,24.1,07.0,0000.0,0004.97,0000.96,0000.74
2022-12-10 08:39:00,,0824.7,5.02,0.00,22.2,21.2,00.0,30.9,24.1,07.0,0000.0,0004.96,0000.95,0000.74
2022-12-10 08:40:00,,0824.7,4.98,0.00,22.2,21.0,00.0,30.9,24.0,07.4,0000.0,0004.91,0000.94,0000.74
2022-12-10 08:41:00,,0824.7,4.98,0.00,22.2,20.8,00.0,30.9,23.9,07.4,0000.0,0004.94,0000.96,0000.74
2022-12-10 08:42:00,,0824.7,5.00,0.00,22.1,20.5,00.0,30.9,23.9,07.5,0000.0,0005.59,0001.00,0000.74
2022-12-10 08:43:00,,0824.6,5.02,0.00,22.1,20.5,00.0,30.9,23.9,07.5,0000.0,0005.71,0001.00,0000.74
2022-12-10 08:44:00,,0824.6,4.97,0.00,22.1,20.6,00.0,30.9,23.9,07.5,0000.0,0004.64,0000.98,0000.74
2022-12-10 08:45:00,,0824.7,5.00,0.00,22.1,20.6,00.0,30.9,23.9,07.5,0000.0,0004.74,0001.01,0000.73
2022-12-10 08:46:00,,0824.7,5.02,0.00,22.1,20.7,00.0,30.9,23.9,07.5,0000.0,0004.32,0001.02,0000.73
2022-12-10 08:47:00,,0824.7,4.99,0.00,22.1,20.7,00.0,30.9,23.9,07.6,0000.0,0003.72,0001.02,0000.73
2022-12-10 08:48:00,,0824.7,4.99,0.00,22.1,20.7,00.0,30.9,23.9,07.6,0000.0,0003.74,0001.02,0000.74
2022-12-10 08:49:00,,0824.6,4.99,0.00,22.0,20.7,00.0,30.9,23.9,07.5,0000.0,0002.97,0001.01,0000.75
2022-12-10 08:50:00,,0824.7,5.03,0.00,22.0,20.8,00.0,30.9,23.9,07.4,0000.0,0002.98,0001.02,0000.75
2022-12-10 08:51:00,,0824.6,5.00,0.00,22.0,20.7,00.0,30.9,23.9,07.4,0000.0,0002.99,0001.02,0000.75
2022-12-10 08:52:00,,0824.6,4.99,0.00,22.0,20.7,00.0,30.9,23.9,07.3,0000.0,0003.13,0000.98,0000.75
2022-12-10 08:53:00,,0824.7,4.98,0.00,22.0,20.7,00.0,30.9,23.8,07.3,0000.0,0003.52,0000.93,0000.74
2022-12-10 08:54:00,,0824.6,5.01,0.00,22.0,20.7,00.0,30.9,23.9,07.3,0000.0,0003.42,0000.91,0000.73
2022-12-10 08:55:00,,0824.8,5.01,0.00,22.0,20.7,00.0,30.9,23.9,07.3,0000.0,0003.63,0000.95,0000.73
2022-12-10 08:56:00,,0824.6,4.99,0.00,22.0,20.8,00.0,30.9,23.9,07.3,0000.0,0003.29,0000.93,0000.73
2022-12-10 08:57:00,,0824.6,4.99,0.00,22.0,20.8,00.0,30.9,23.9,07.3,0000.0,0002.96,0000.93,0000.74
2022-12-10 08:58:00,,0824.6,5.00,0.00,22.0,20.8,00.0,30.9,23.9,07.4,0000.0,0003.01,0000.94,0000.74
2022-12-10 08:59:00,,0824.6,5.02,0.00,22.0,20.8,00.0,30.8,23.9,07.3,0000.0,0002.97,0000.94,0000.73
